| time (UTC) | temp F | wind direction | speed MPH | gust MPH | rain 1hr in | rain 24hr in | rain mn in | humidity % | barometer mb |
| 20260504070202 | 81 | 29 | 0.0 | 3.0 | 0.00 | 0.00 | 0.00 | 100 | |
| 20260504060159 | 75 | 247 | 1.0 | 3.0 | 0.00 | 0.00 | 0.00 | 100 | |
| 20260504050656 | 73 | 330 | 0.0 | 5.0 | 0.00 | 0.00 | 0.00 | 100 | |
| 20260504050155 | 72 | 306 | 1.0 | 5.0 | 0.00 | 0.00 | 0.00 | 100 | |
| 20260504045655 | 70 | 272 | 0.0 | 6.0 | 0.00 | 0.00 | 0.00 | 100 | |
| 20260504045155 | 69 | 313 | 2.0 | 5.0 | 0.00 | 0.00 | 0.00 | 100 | |
| 20260504044654 | 70 | 209 | 1.0 | 4.0 | 0.00 | 0.00 | 0.00 | 100 | |
| 20260504044154 | 69 | 278 | 2.0 | 5.0 | 0.00 | 0.00 | 0.00 | 100 | |
| 20260504043654 | 68 | 182 | 0.0 | 6.0 | 0.00 | 0.00 | 0.00 | 100 | |
| 20260504043154 | 66 | 285 | 2.0 | 5.0 | 0.00 | 0.00 | 0.00 | 100 | |
| 20260504042653 | 66 | 310 | 2.0 | 4.0 | 0.00 | 0.00 | 0.00 | 100 | |
| 20260504042153 | 65 | 313 | 2.0 | 5.0 | 0.00 | 0.00 | 0.00 | 100 | |
| 20260504041653 | 65 | 296 | 0.0 | 7.0 | 0.00 | 0.00 | 0.00 | 100 | |
| 20260504041152 | 65 | 268 | 3.0 | 5.0 | 0.00 | 0.00 | 0.00 | 100 | |
| 20260504040652 | 63 | 289 | 2.0 | 6.0 | 0.00 | 0.00 | 0.00 | 100 | |
| 20260504040152 | 63 | 239 | 1.0 | 6.0 | 0.00 | 0.00 | 0.00 | 100 | |
| 20260504035652 | 62 | 288 | 4.0 | 6.0 | 0.00 | 0.00 | 0.00 | 100 | |
| 20260504035151 | 62 | 322 | 1.0 | 8.0 | 0.00 | 0.00 | 0.00 | 100 | |
| 20260504034651 | 62 | 246 | 4.0 | 8.0 | 0.00 | 0.00 | 0.00 | 100 | |
| 20260504034151 | 62 | 343 | 3.0 | 9.0 | 0.00 | 0.00 | 0.00 | 100 | |
| 20260504033650 | 61 | 222 | 3.0 | 9.0 | 0.00 | 0.00 | 0.00 | 100 | |
| 20260504033150 | 61 | 227 | 7.0 | 10.0 | 0.00 | 0.00 | 0.00 | 100 | |
| 20260504032650 | 61 | 253 | 2.0 | 10.0 | 0.00 | 0.00 | 0.00 | 100 | |
| 20260504032149 | 62 | 289 | 6.0 | 11.0 | 0.00 | 0.00 | 0.00 | 100 | |
| 20260504031649 | 62 | 265 | 7.0 | 13.0 | 0.00 | 0.00 | 0.00 | 100 | |
| 20260504031149 | 62 | 296 | 6.0 | 14.0 | 0.00 | 0.00 | 0.00 | 100 | |
| 20260504030649 | 62 | 251 | 9.0 | 15.0 | 0.00 | 0.00 | 0.00 | 100 | |
| 20260504030148 | 62 | 253 | 5.0 | 13.0 | 0.00 | 0.00 | 0.00 | 100 | |
| 20260504025648 | 63 | 291 | 9.0 | 12.0 | 0.00 | 0.00 | 0.00 | 100 | |
| 20260504025148 | 63 | 216 | 11.0 | 13.0 | 0.00 | 0.00 | 0.00 | 100 | |
| 20260504024647 | 62 | 230 | 9.0 | 16.0 | 0.00 | 0.00 | 0.00 | 100 | |
| 20260504024147 | 62 | 233 | 11.0 | 13.0 | 0.00 | 0.00 | 0.00 | 100 | |
| 20260504023647 | 62 | 260 | 6.0 | 12.0 | 0.00 | 0.00 | 0.00 | 100 | |
| 20260504023146 | 62 | 257 | 2.0 | 14.0 | 0.00 | 0.00 | 0.00 | 100 | |
| 20260504022646 | 62 | 240 | 5.0 | 11.0 | 0.00 | 0.00 | 0.00 | 100 | |
| 20260504022146 | 62 | 219 | 9.0 | 15.0 | 0.00 | 0.00 | 0.00 | 100 | |
| 20260504021646 | 61 | 241 | 9.0 | 13.0 | 0.00 | 0.00 | 0.00 | 100 | |
| 20260504021145 | 62 | 246 | 6.0 | 11.0 | 0.00 | 0.00 | 0.00 | 100 | |
| 20260504020645 | 62 | 239 | 6.0 | 10.0 | 0.00 | 0.00 | 0.00 | 100 | |
| 20260504020145 | 62 | 209 | 8.0 | 10.0 | 0.00 | 0.00 | 0.00 | 100 | |
| 20260504015644 | 63 | 241 | 8.0 | 11.0 | 0.00 | 0.00 | 0.00 | 100 | |
| 20260504015144 | 63 | 251 | 3.0 | 10.0 | 0.00 | 0.00 | 0.00 | 100 | |
| 20260504014644 | 62 | 258 | 3.0 | 16.0 | 0.00 | 0.00 | 0.00 | 100 | |
| 20260504014144 | 62 | 236 | 12.0 | 15.0 | 0.00 | 0.00 | 0.00 | 100 | |
| 20260504013643 | 63 | 260 | 7.0 | 15.0 | 0.00 | 0.00 | 0.00 | 100 | |
| 20260504013143 | 63 | 291 | 3.0 | 13.0 | 0.00 | 0.00 | 0.00 | 100 | |
| 20260504012643 | 63 | 253 | 9.0 | 12.0 | 0.00 | 0.00 | 0.00 | 100 | |
| 20260504012142 | 63 | 307 | 3.0 | 14.0 | 0.00 | 0.00 | 0.00 | 100 | |
| 20260504011642 | 64 | 319 | 6.0 | 13.0 | 0.00 | 0.00 | 0.00 | 100 | |
| 20260504011142 | 64 | 291 | 8.0 | 18.0 | 0.00 | 0.00 | 0.00 | 100 | |
| 20260504010642 | 63 | 244 | 9.0 | 16.0 | 0.00 | 0.00 | 0.00 | 100 | |
| 20260504010141 | 63 | 239 | 3.0 | 12.0 | 0.00 | 0.00 | 0.00 | 100 | |
| 20260504005641 | 64 | 236 | 8.0 | 16.0 | 0.00 | 0.00 | 0.00 | 100 | |
| 20260504005141 | 64 | 270 | 10.0 | 14.0 | 0.00 | 0.00 | 0.00 | 100 | |
| 20260504004640 | 64 | 271 | 5.0 | 16.0 | 0.00 | 0.00 | 0.00 | 100 | |
| 20260504004140 | 64 | 223 | 5.0 | 13.0 | 0.00 | 0.00 | 0.00 | 100 | |
| 20260504003640 | 64 | 326 | 2.0 | 15.0 | 0.00 | 0.00 | 0.00 | 100 | |
| 20260504003139 | 64 | 268 | 12.0 | 19.0 | 0.00 | 0.00 | 0.00 | 100 | |
| 20260504002639 | 64 | 246 | 8.0 | 15.0 | 0.00 | 0.00 | 0.00 | 100 | |
| 20260504002139 | 64 | 289 | 6.0 | 14.0 | 0.00 | 0.00 | 0.00 | 100 | |
| 20260504001639 | 64 | 306 | 6.0 | 12.0 | 0.00 | 0.00 | 0.00 | 100 | |
| 20260504001138 | 64 | 254 | 3.0 | 15.0 | 0.00 | 0.00 | 0.00 | 100 | |
| 20260504000638 | 64 | 274 | 9.0 | 12.0 | 0.00 | 0.00 | 0.00 | 100 | |
| 20260504000138 | 64 | 251 | 2.0 | 15.0 | 0.00 | 0.00 | 0.00 | 100 | |
| 20260503235637 | 65 | 264 | 9.0 | 14.0 | 0.00 | 0.00 | 0.00 | 100 | |
| 20260503235137 | 65 | 253 | 5.0 | 15.0 | 0.00 | 0.00 | 0.00 | 100 | |
| 20260503234637 | 64 | 319 | 2.0 | 14.0 | 0.00 | 0.00 | 0.00 | 100 | |
| 20260503234137 | 64 | 299 | 6.0 | 13.0 | 0.00 | 0.00 | 0.00 | 100 | |
| 20260503233636 | 64 | 316 | 3.0 | 12.0 | 0.00 | 0.00 | 0.00 | 100 | |
| 20260503233136 | 64 | 272 | 8.0 | 13.0 | 0.00 | 0.00 | 0.00 | 100 | |
| 20260503232636 | 65 | 170 | 5.0 | 11.0 | 0.00 | 0.00 | 0.00 | 100 | |
| 20260503232135 | 64 | 260 | 8.0 | 13.0 | 0.00 | 0.00 | 0.00 | 100 | |
| 20260503231635 | 65 | 284 | 1.0 | 10.0 | 0.00 | 0.00 | 0.00 | 100 | |
| 20260503231135 | 65 | 247 | 6.0 | 15.0 | 0.00 | 0.00 | 0.00 | 100 | |
| 20260503230635 | 65 | 281 | 6.0 | 13.0 | 0.00 | 0.00 | 0.00 | 100 | |
| 20260503230134 | 65 | 244 | 5.0 | 10.0 | 0.00 | 0.00 | 0.00 | 100 | |
| 20260503225634 | 65 | 302 | 6.0 | 12.0 | 0.00 | 0.00 | 0.00 | 100 | |
| 20260503225134 | 65 | 217 | 6.0 | 13.0 | 0.00 | 0.00 | 0.00 | 100 | |
| 20260503224633 | 65 | 307 | 4.0 | 13.0 | 0.00 | 0.00 | 0.00 | 100 | |
| 20260503224133 | 65 | 254 | 6.0 | 12.0 | 0.00 | 0.00 | 0.00 | 100 | |
| 20260503223633 | 65 | 241 | 2.0 | 12.0 | 0.00 | 0.00 | 0.00 | 100 | |
| 20260503223132 | 65 | 210 | 7.0 | 13.0 | 0.00 | 0.00 | 0.00 | 100 | |
| 20260503222632 | 65 | 268 | 6.0 | 14.0 | 0.00 | 0.00 | 0.00 | 100 | |
| 20260503222132 | 65 | 262 | 11.0 | 15.0 | 0.00 | 0.00 | 0.00 | 100 | |
| 20260503221632 | 65 | 206 | 0.0 | 11.0 | 0.00 | 0.00 | 0.00 | 100 | |
| 20260503221131 | 65 | 278 | 5.0 | 12.0 | 0.00 | 0.00 | 0.00 | 100 | |
| 20260503220631 | 65 | 317 | 3.0 | 11.0 | 0.00 | 0.00 | 0.00 | 100 | |
| 20260503220131 | 65 | 298 | 3.0 | 14.0 | 0.00 | 0.00 | 0.00 | 100 | |
| 20260503215630 | 65 | 241 | 3.0 | 12.0 | 0.00 | 0.00 | 0.00 | 100 | |
| 20260503215130 | 66 | 227 | 4.0 | 15.0 | 0.00 | 0.00 | 0.00 | 100 | |
| 20260503214630 | 65 | 271 | 6.0 | 15.0 | 0.00 | 0.00 | 0.00 | 100 | |
| 20260503214130 | 65 | 227 | 8.0 | 13.0 | 0.00 | 0.00 | 0.00 | 100 | |
| 20260503213629 | 66 | 234 | 6.0 | 16.0 | 0.00 | 0.00 | 0.00 | 100 | |
| 20260503213129 | 65 | 251 | 12.0 | 15.0 | 0.00 | 0.00 | 0.00 | 100 | |
| 20260503212629 | 66 | 233 | 6.0 | 15.0 | 0.00 | 0.00 | 0.00 | 100 | |
| 20260503212128 | 66 | 310 | 1.0 | 14.0 | 0.00 | 0.00 | 0.00 | 100 | |
| 20260503211628 | 66 | 253 | 11.0 | 18.0 | 0.00 | 0.00 | 0.00 | 100 | |
| 20260503211128 | 66 | 232 | 11.0 | 16.0 | 0.00 | 0.00 | 0.00 | 100 | |
| 20260503210628 | 65 | 257 | 9.0 | 14.0 | 0.00 | 0.00 | 0.00 | 100 | |
| 20260503210127 | 66 | 257 | 7.0 | 13.0 | 0.00 | 0.00 | 0.00 | 100 | |
| 20260503205627 | 66 | 282 | 4.0 | 12.0 | 0.00 | 0.00 | 0.00 | 100 | |
| 20260503205127 | 66 | 267 | 6.0 | 12.0 | 0.00 | 0.00 | 0.00 | 100 | |
| 20260503204626 | 66 | 229 | 7.0 | 16.0 | 0.00 | 0.00 | 0.00 | 100 | |
| 20260503204126 | 66 | 244 | 8.0 | 12.0 | 0.00 | 0.00 | 0.00 | 100 | |
| 20260503203626 | 66 | 241 | 7.0 | 12.0 | 0.00 | 0.00 | 0.00 | 100 | |
| 20260503203125 | 66 | 279 | 2.0 | 12.0 | 0.00 | 0.00 | 0.00 | 100 | |
| 20260503202625 | 67 | 172 | 2.0 | 13.0 | 0.00 | 0.00 | 0.00 | 100 | |
| 20260503202125 | 67 | 225 | 8.0 | 12.0 | 0.00 | 0.00 | 0.00 | 100 | |
| 20260503201625 | 67 | 250 | 9.0 | 12.0 | 0.00 | 0.00 | 0.00 | 100 | |
| 20260503201124 | 67 | 208 | 2.0 | 14.0 | 0.00 | 0.00 | 0.00 | 100 | |
| 20260503200624 | 67 | 251 | 1.0 | 13.0 | 0.00 | 0.00 | 0.00 | 100 | |
| 20260503200124 | 67 | 292 | 9.0 | 14.0 | 0.00 | 0.00 | 0.00 | 100 | |
| 20260503195623 | 67 | 229 | 10.0 | 12.0 | 0.00 | 0.00 | 0.00 | 100 | |
| 20260503195123 | 68 | 223 | 9.0 | 14.0 | 0.00 | 0.00 | 0.00 | 100 | |
| 20260503194623 | 68 | 264 | 3.0 | 14.0 | 0.00 | 0.00 | 0.00 | 100 | |
| 20260503194123 | 68 | 233 | 10.0 | 13.0 | 0.00 | 0.00 | 0.00 | 100 | |
| 20260503193622 | 68 | 240 | 9.0 | 15.0 | 0.00 | 0.00 | 0.00 | 100 | |
| 20260503193122 | 68 | 232 | 11.0 | 13.0 | 0.00 | 0.00 | 0.00 | 100 | |
| 20260503192622 | 68 | 243 | 5.0 | 16.0 | 0.00 | 0.00 | 0.00 | 100 | |
| 20260503192121 | 68 | 232 | 9.0 | 16.0 | 0.00 | 0.00 | 0.00 | 100 | |
| 20260503191621 | 68 | 220 | 5.0 | 16.0 | 0.00 | 0.00 | 0.00 | 100 | |
| 20260503191121 | 68 | 246 | 5.0 | 15.0 | 0.00 | 0.00 | 0.00 | 100 | |
| 20260503190621 | 69 | 255 | 5.0 | 14.0 | 0.00 | 0.00 | 0.00 | 100 | |
| 20260503190120 | 69 | 189 | 10.0 | 15.0 | 0.00 | 0.00 | 0.00 | 100 | |
| 20260503185620 | 68 | 244 | 11.0 | 14.0 | 0.00 | 0.00 | 0.00 | 100 | |
| 20260503185120 | 68 | 219 | 6.0 | 14.0 | 0.00 | 0.00 | 0.00 | 100 | |
| 20260503184619 | 68 | 175 | 2.0 | 15.0 | 0.00 | 0.00 | 0.00 | 100 | |
| 20260503184119 | 69 | 216 | 5.0 | 11.0 | 0.00 | 0.00 | 0.00 | 100 | |
| 20260503183619 | 69 | 275 | 6.0 | 10.0 | 0.00 | 0.00 | 0.00 | 100 | |
| 20260503183118 | 69 | 250 | 7.0 | 11.0 | 0.00 | 0.00 | 0.00 | 100 | |
| 20260503182618 | 69 | 268 | 6.0 | 10.0 | 0.00 | 0.00 | 0.00 | 100 | |
| 20260503182118 | 69 | 216 | 7.0 | 11.0 | 0.00 | 0.00 | 0.00 | 100 | |
| 20260503181618 | 69 | 201 | 5.0 | 12.0 | 0.00 | 0.00 | 0.00 | 100 | |
| 20260503181117 | 70 | 292 | 4.0 | 12.0 | 0.00 | 0.00 | 0.00 | 100 | |
| 20260503180617 | 70 | 137 | 2.0 | 15.0 | 0.00 | 0.00 | 0.00 | 100 | |
| 20260503180117 | 70 | 255 | 6.0 | 13.0 | 0.00 | 0.00 | 0.00 | 100 | |
| 20260503175616 | 70 | 251 | 2.0 | 12.0 | 0.00 | 0.00 | 0.00 | 100 | |
| 20260503175116 | 70 | 234 | 9.0 | 11.0 | 0.00 | 0.00 | 0.00 | 100 | |
| 20260503174616 | 71 | 258 | 8.0 | 11.0 | 0.00 | 0.00 | 0.00 | 100 | |
| 20260503174116 | 71 | 244 | 8.0 | 11.0 | 0.00 | 0.00 | 0.00 | 100 | |
| 20260503173615 | 71 | 239 | 7.0 | 10.0 | 0.00 | 0.00 | 0.00 | 100 | |
| 20260503173115 | 71 | 189 | 2.0 | 14.0 | 0.00 | 0.00 | 0.00 | 100 | |
| 20260503172615 | 72 | 258 | 5.0 | 15.0 | 0.00 | 0.00 | 0.00 | 100 | |
| 20260503172114 | 72 | 254 | 6.0 | 17.0 | 0.00 | 0.00 | 0.00 | 100 | |
| 20260503171614 | 72 | 241 | 10.0 | 16.0 | 0.00 | 0.00 | 0.00 | 100 | |
| 20260503171114 | 72 | 253 | 8.0 | 13.0 | 0.00 | 0.00 | 0.00 | 100 | |
| 20260503170614 | 73 | 248 | 5.0 | 14.0 | 0.00 | 0.00 | 0.00 | 100 | |
| 20260503170113 | 73 | 227 | 8.0 | 14.0 | 0.00 | 0.00 | 0.00 | 100 | |
| 20260503160110 | 75 | 216 | 3.0 | 17.0 | 0.00 | 0.00 | 0.00 | 100 | |
| 20260503150607 | 76 | 250 | 9.0 | 19.0 | 0.00 | 0.00 | 0.00 | 100 | |
| 20260503150106 | 77 | 212 | 12.0 | 22.0 | 0.00 | 0.00 | 0.00 | 100 | |
| 20260503131100 | 80 | 202 | 10.0 | 23.0 | 0.00 | 0.00 | 0.00 | 100 | |
| 20260503130559 | 79 | 225 | 13.0 | 21.0 | 0.00 | 0.00 | 0.00 | 100 | |
| 20260503110553 | 78 | 229 | 9.0 | 16.0 | 0.00 | 0.00 | 0.00 | 100 | |
| 20260503081543 | 71 | 199 | 11.0 | 14.0 | 0.00 | 0.00 | 0.00 | 100 | |
| 20260503081042 | 70 | 196 | 6.0 | 13.0 | 0.00 | 0.00 | 0.00 | 100 | |
| 20260503080542 | 68 | 212 | 12.0 | 14.0 | 0.00 | 0.00 | 0.00 | 100 |